Regional Weather Roundup
Issued by NWS

Home | Current Version | Previous Version | Text Only | Print | Product List | Glossary On
Versions: 1 2 3 4 5 6 7 8 9 10 11 12 13 14 15 16 17 18 19 20 21 22 23 24 25 26 27 28 29 30 31 32 33 34 35 36 37 38 39 40 41 42 43 44 45 46 47 48 49 50
000
ASUS44 KFWD 111310
RWRTX
NORTH TEXAS HOURLY WEATHER ROUNDUP
NATIONAL WEATHER SERVICE FORT WORTH TX
700 AM CST MON DEC 11 2017

NOTE: "FAIR" INDICATES FEW OR NO CLOUDS BELOW 12,000 FEET WITH NO
SIGNIFICANT WEATHER AND/OR OBSTRUCTIONS TO VISIBILITY.

TXZ118-119-111400-
DALLAS/FORT WORTH METROPLEX

CITY           SKY/WX    TMP DP  RH WIND       PRES   REMARKS
DFW AIRPORT    CLOUDY    39  27  62 SW7       30.24R WCI  34
DALLAS LOVE    CLOUDY    42  28  57 CALM      30.27R
FTW MEACHAM    CLOUDY    47  26  44 W6        30.26R
DAL-EXECUTIVE  CLOUDY    52  20  28 W10       30.25R
FTW-ALLIANCE   PTCLDY    46  20  35 W8        30.25R
FTW-NAS-JRB    CLOUDY    42  37  82 W5        30.28R WCI  39
FTW-SPINKS     CLEAR     36  23  60 CALM      30.28R
ARLINGTON      CLOUDY    38  24  57 S3        30.27R
GRAND PRAIRIE  CLOUDY    41  23  48 CALM      30.29R
ADDISON        CLEAR     43  25  49 CALM      30.26R
MESQUITE       CLEAR     32  23  69 S3        30.27S
LANCASTER      CLOUDY    35  20  54 CALM      30.28R
$$

TXZ091>094-102>105-117-120-121-131>134-111400-
NORTH CENTRAL TEXAS

CITY           SKY/WX    TMP DP  RH WIND       PRES   REMARKS
SHRMAN/DENISON CLEAR     38  21  51 SW6       30.24S WCI  33
GAINESVILLE    CLEAR     37  18  46 W3        30.26R
BOWIE          CLOUDY    47  15  28 W7        30.25R
BRIDGEPORT     CLOUDY    44  19  36 SW8       30.28S WCI  39
DECATUR        CLOUDY    45  20  36 W9        30.25R
DENTON         CLEAR     39  21  48 CALM      30.25R
MCKINNEY       CLEAR     31  25  78 CALM      30.25R
BONHAM         CLEAR     37  20  50 SW5       30.24R WCI  34
GREENVILLE     CLEAR     37  28  70 CALM      30.26R
ROCKWALL       CLEAR     39  26  58 SW5       30.26R WCI  36
TERRELL        CLEAR     33  24  69 CALM      30.27R
WAXAHACHIE     PTCLDY    48  23  36 W3        30.28R
CLEBURNE       CLOUDY    46  18  31 W6        30.29S
GRANBURY       CLOUDY    32  22  68 CALM      30.30S
$$

TXZ083>090-098>101-113>116-127>130-139>142-154-155-111400-
WESTERN NORTH TEXAS

CITY           SKY/WX    TMP DP  RH WIND       PRES   REMARKS
WICHITA FALLS  CLOUDY    41  14  33 W16       30.23S WCI  33
WF-KICKAPOO    CLOUDY    39  22  50 W6        30.27S WCI  35
VERNON         CLOUDY    33  11  40 W3        30.26R
ABILENE        CLOUDY    39  18  42 S6        30.31S WCI  35
ABILENE-DYESS  CLEAR     36  19  51 CALM      30.30S
GRAHAM           N/A     32  20  62 CALM      30.28R
BRECKENRIDGE   CLOUDY    36  20  51 CALM      30.29F
CISCO          CLOUDY    46  18  31 W9        30.30S
EASTLAND       CLOUDY    24  17  75 CALM      30.30S
RANGER           N/A     46  19  34 W7        30.29S
MINERAL WELLS  CLOUDY    30  19  63 CALM      30.27S
STEPHENVILLE   CLEAR     39  20  46 CALM      30.31S
COMANCHE       CLOUDY    46  22  39 W10       30.31R
COLEMAN        CLOUDY    37  19  47 W3        30.31S
$$

TXZ143>147-156>162-174-175-111400-
CENTRAL TEXAS

CITY           SKY/WX    TMP DP  RH WIND       PRES   REMARKS
WACO           CLOUDY    35  29  78 CALM      30.30R
WACO-TSTC      CLEAR     30  28  93 CALM      30.30
WACO-MCGREGOR  CLOUDY    32  26  78 S5        30.30S WCI  27
HILLSBORO      CLOUDY    37  25  62 CALM      30.29R
CORSICANA      CLOUDY    36  28  73 S7        30.30R WCI  30
MEXIA          CLEAR     43  26  50 W6        30.28S WCI  39
HEARNE         CLOUDY    31  31 100 CALM      30.33S
CAMERON        CLOUDY    39  32  78 SW6       30.32R WCI  34
TEMPLE         CLOUDY    40  32  73 CALM      30.32R
KILLEEN        CLEAR     50  25  37 SW8       30.29S
KILLEEN-SKYLRK CLOUDY    42  28  57 W5        30.31S WCI  39
FORT HOOD      CLOUDY    42  27  54 W5        30.27S WCI  40
GATESVILLE     CLOUDY    37  25  60 NW5       30.32S WCI  34
HAMILTON       CLOUDY    40  25  53 W6        30.31R WCI  36
LAMPASAS       PTCLDY    43  25  49 CALM      30.30F
$$

TXZ095>097-106>112-122>126-135>138-148>153-164>167-111400-
EAST TEXAS

CITY           SKY/WX    TMP DP  RH WIND       PRES   REMARKS
PARIS          CLEAR     35  23  61 SW3       30.23S
SULPHUR SPRNGS CLEAR     40  28  62 SW3       30.27R
MOUNT PLEASANT CLEAR     33  29  88 CALM      30.25S
GILMER         PTCLDY    34  30  84 MISG      30.25R
MINEOLA        CLEAR     32  27  80 CALM      30.26R
TYLER          CLEAR     43  31  62 SW8       30.26R WCI  38
LONGVIEW       CLEAR     33  31  92 SW3       30.25R
MARSHALL       CLEAR     30  28  92 CALM      30.27S
ATHENS         CLOUDY    28  25  86 CALM      30.28R
PALESTINE      CLEAR     34  32  92 CALM      30.31R
JACKSONVILLE   CLEAR     44  32  62 SW7       30.28S
HENDERSON      CLEAR     29  28  94 CALM      30.27S
CENTER         SUNNY     33  32  94 MISG      30.28R
NACOGDOCHES    CLEAR     30  27  88 CALM      30.29R
LUFKIN         CLEAR     34  31  88 CALM      30.29S
$$

SUPPLEMENTAL OBSERVATIONS (NWS FORT WORTH AREA)

CITY           SKY/WX    TMP DP  RH WIND       PRES   REMARKS
CADDO GRASSLND   N/A     36  27  69 S3          N/A
PAT MAYSE LAKE   N/A     41  36  81 SE3         N/A
GREENVILLE       N/A     37  23  56 SW6         N/A  WCI  33
CEDAR HILL       N/A     48  18  29 S3          N/A
LBJ GRASSLAND    N/A     43  18  36 W2          N/A
POSSUM KINGDOM   N/A     45  19  36 SW7         N/A
GRANBURY         N/A     32  23  69 CALM        N/A
MCGREGOR         N/A     36  25  64 SW2         N/A
TEMPLE           N/A     41  30  65 W8          N/A  WCI  36
$$

SUPPLEMENTAL OBSERVATIONS (NWS NORMAN AREA)

CITY           SKY/WX    TMP DP  RH WIND       PRES   REMARKS
GOODLETT         N/A     35  14  42 SW13      30.25S WCI  26
ODELL            N/A     26  16  65 W7        30.26S WCI  19
CROWELL          N/A     41  13  32 SW6       30.27S WCI  37
KNOX CITY        N/A     38  11  33 SW8       30.30S WCI  32
SEYMOUR          N/A     33  15  46 SW2       30.28S
MILLERS CREEK    N/A     34  23  64 SW8         N/A  WCI  27
$$

SUPPLEMENTAL OBSERVATIONS (NWS SAN ANGELO AREA)

CITY           SKY/WX    TMP DP  RH WIND       PRES   REMARKS
WEINERT          N/A     36  13  38 SW7       30.30S WCI  30
HASKELL          N/A     40  13  34 SW8       30.30R WCI  34
THROCKMORTON     N/A     43  22  42 SW9       30.30R WCI  37
STAMFORD         N/A     31  18  58 SW6       30.32S WCI  25
CLYDE            N/A     44  18  34 W7        30.32S
HAMBY            N/A     32  19  59 SE2         N/A
IVIE RESERVOIR   N/A     37  32  81 NW8         N/A  WCI  31
COLORADO BEND    N/A     34  25  69 CALM        N/A
$$

SUPPLEMENTAL OBSERVATIONS (NWS SHREVEPORT AREA)

CITY           SKY/WX    TMP DP  RH WIND       PRES   REMARKS
CLARKSVILLE      N/A     37  25  60 W1          N/A
TEXARKANA        N/A     30  28  93 CALM        N/A
LINDEN           N/A     37  28  70 CALM        N/A
GILMER           N/A     34  30  86 CALM        N/A
HENDERSON        N/A     30  27  86 CALM        N/A
LUFKIN           N/A     32  32 100 MISG        N/A
N SABINE NF      N/A     36  32  87 MISG        N/A
S SABINE NF      N/A     37  34  87 S2          N/A
$$

SUPPLEMENTAL OBSERVATIONS ARE A COLLECTION OF AUTOMATED INSTRUMENTS
THAT ARE MAINTAINED BY A VARIETY OF FEDERAL AND STATE AGENCIES.
CERTAIN ELEMENTS...SUCH AS HUMIDITY VALUES AND SUSTAINED WIND
SPEEDS...MAY BE APPROXIMATED.




USA.gov is the U.S. government's official web portal to all federal, state and local government web resources and services.